Regional Weather Roundup
Issued by NWS Little Rock, AR

Home | Current Version | Previous Version | Text Only | Print | Product List | Glossary Off
Versions: 1 2 3 4 5 6 7 8 9 10 11 12 13 14 15 16 17 18 19 20 21 22 23 24 25 26 27 28 29 30 31 32 33 34 35 36 37 38 39 40 41 42 43 44 45 46 47 48 49 50

645
ASUS44 KLZK 031005
RWRLZK

WEATHER ROUNDUP FOR ARKANSAS
NATIONAL WEATHER SERVICE LITTLE ROCK AR
500 AM CDT TUE MAY 03 2016

NOTE: "FAIR" INDICATES FEW OR NO CLOUDS BELOW 12,000 FEET WITH NO
SIGNIFICANT WEATHER AND/OR OBSTRUCTIONS TO VISIBILITY.

ARZ001-003-010-029-031100-
NORTHWEST ARKANSAS

CITY           SKY/WX    TMP DP  RH WIND       PRES   REMARKS
FAYETTEVILLE   FOG       39  39 100 CALM      30.07R VSB 1/2
FORT SMITH     PTCLDY    47  43  86 CALM      30.07R
HARRISON       CLOUDY    48  46  93 NW6       30.05S
BENTONVILLE    CLEAR    N/A N/A N/A CALM      30.07R
ROGERS         CLEAR     42  42 100 NE3       30.07S
SILOAM SPGS    CLOUDY    39  32  75 CALM      30.08R VSB<1/4
HIGHFILL       CLEAR     42  40  92 CALM      30.06S
$$

ARZ004-005-016-031100-
NORTH CENTRAL ARKANSAS

CITY           SKY/WX    TMP DP  RH WIND       PRES   REMARKS
BATESVILLE     CLOUDY    54  46  76 NW3       30.03S
FLIPPIN        MOCLDY   N/A N/A N/A N3        30.02S
MTN HOME       CLOUDY    51  46  83 NW3       30.03S
$$

ARZ040-041-031100-
WEST CENTRAL ARKANSAS

CITY           SKY/WX    TMP DP  RH WIND       PRES   REMARKS
MENA           CLEAR     43  41  93 CALM      30.05S
MOUNT IDA      CLEAR     48  45  89 W3        30.02R
$$

ARZ009-017-025-026-028-031100-
NORTHEAST ARKANSAS

CITY           SKY/WX    TMP DP  RH WIND       PRES   REMARKS
CORNING          N/A     54  48  82 NW7       30.02S
JONESBORO      CLOUDY    56  50  80 NW3       30.01R
NEWPORT        CLOUDY    55  50  83 NW9       30.03R
WALNUT RIDGE   CLOUDY    54  46  76 N8        30.01S
BLYTHEVILLE    CLOUDY    56  52  86 N6        30.00R
$$

ARZ022-023-033-042-044-031100-
CENTRAL ARKANSAS

CITY           SKY/WX    TMP DP  RH WIND       PRES   REMARKS
LITTLE ROCK    CLOUDY    57  49  74 NW9       30.02F
N LITTLE ROCK    N/A     53  49  86 CALM      30.01S
JACKSONVILLE   CLOUDY    55  51  85 W3        30.01F
SEARCY         CLOUDY    54  49  83 NW3       30.03S
HOT SPRINGS    CLOUDY    54  51  90 NW5       30.03S
RUSSELLVILLE   PTCLDY    48  46  93 CALM      30.04R
$$

ARZ036-031100-
EAST ARKANSAS

CITY           SKY/WX    TMP DP  RH WIND       PRES   REMARKS
WEST MEMPHIS   CLEAR     54  52  93 N6        29.98R
$$

ARZ050-053-066-070-073-031100-
SOUTHWEST ARKANSAS

CITY           SKY/WX    TMP DP  RH WIND       PRES   REMARKS
ARKADELPHIA    PTSUNNY   57  57 100 NW6       30.03R
CAMDEN         MOCLDY    55  50  82 N5        30.01S
TEXARKANA      CLEAR     50  47  89 NW6       30.04S
EL DORADO      PTCLDY    53  53 100 NW5       30.01F
DE QUEEN       CLEAR     45  45 100 CALM      30.04S
$$

ARZ056-057-069-031100-
SOUTHEAST ARKANSAS

CITY           SKY/WX    TMP DP  RH WIND       PRES   REMARKS
PINE BLUFF     MOCLDY    56  51  84 N7        30.00F
STUTTGART      CLEAR     55  48  76 N8        30.01S
MONTICELLO     CLOUDY    58  54  86 CALM      29.99S

$$






USA.gov is the U.S. government's official web portal to all federal, state and local government web resources and services.